Regional Weather Roundup
Issued by NWS Goodland, KS

Home | Current Version | Previous Version | Graphics & Text | Print | Product List | Glossary On
Versions: 1 2 3 4 5 6 7 8 9 10 11 12 13 14 15 16 17 18 19 20 21 22 23 24 25 26 27 28 29 30 31 32 33 34 35 36 37 38 39 40 41 42 43 44 45 46 47 48 49 50
000
ASUS43 KGLD 251208
RWRGLD

GOODLAND FORECAST AREA HOURLY WEATHER ROUNDUP
NATIONAL WEATHER SERVICE GOODLAND KS
600 AM MDT SAT OCT 25 2014

...OFFICIAL OBSERVATIONS...

CITY           SKY/WX    TMP DP  RH WIND       PRES   REMARKS
GOODLAND KS    CLEAR     45  34  65 W7        30.13R
HILL CITY KS   CLEAR     42  38  85 SW5       30.06S
IMPERIAL NEB   CLEAR     45  32  60 NW6       30.10S
MCCOOK NEB     CLEAR     40  34  79 SW7       30.09R
AKRON CO       LGT RAIN  46  28  49 W14       30.16R
BURLINGTON CO  CLEAR     45  32  60 W7        30.13S
LIMON CO       CLEAR     48  28  46 N8        30.21R
$$

...UNOFFICIAL OBSERVATIONS...

CITY           SKY/WX    TMP DP  RH WIND       PRES   REMARKS
COLBY KS       CLEAR     46  37  71 W3        30.11R
NORTON KS      CLEAR     39  34  81 NW3       30.06S
SHARON SPRINGS   N/A     51  40  65 W5          N/A
TRIBUNE KS     CLEAR     48  43  81 SW8       30.12S
KIT CARSON CO    N/A     44  34  67 CALM        N/A
YUMA CO          N/A     40  30  66 W6          N/A
$$



USA.gov is the U.S. government's official web portal to all federal, state and local government web resources and services.